Retour au catalogue

COSMOS 1275 DEB

ActifPO
NORAD 13814·DEBRIS·🇷🇺 Russia

Lancé Jun 4, 1981 depuis Plesetsk Cosmodrome

Loading…

Prochains Passages (prochaines 24 heures)

TLE

FraisSource: Space-Track

Époque: Sep 13, 2026, 06:34 UTC

1 13814U 81053HJ  26256.27416867  .00009992  00000-0  14749-2 0  9992
2 13814  82.9197 186.3937 0008613  90.8663  69.2529 14.75172165252238

Suivez COSMOS 1275 DEB en temps réel avec AllMySat

Download on the App Store